Home > Weather > Gitega > Past weeks

Flag for Burundi Weather for the Past 2 Weeks in Gitega, Burundi

Now
66 °F

Mild.


Feels Like: 66 °F
Forecast: 59 / 74 °F
Wind: No wind

Location: Kigali Airport

Current Time: Feb 8, 2016 at 8:10:10 AM

Latest Report: Feb 8, 2016 at 8:00 AM


Visibility: N/A

Pressure: 30.21 "Hg (24.82 "Hg at 1679m altitude)

Humidity: 94%

Dew point: 64 °F

Location of GitegaLocation

Historic Weather in Gitega — Graph

°F

Gitega Temperature Yesterday

Maximum temperature yesterday: 82 °F (at 1:30 PM)
Minimum temperature yesterday: 64 °F (at 5:30 AM)
Average temperature yesterday: 72 °F

High & Low Weather Summary for the Past Weeks

 TemperatureHumidityPressure
High90 °F (Feb 4, 3:30 PM)100% (Jan 24, 7:00 AM)30.24 "Hg (Jan 24, 7:00 AM)
Low45 °F (Feb 2, 7:30 AM)29% (Feb 5, 1:00 PM)29.98 "Hg (Feb 5, 4:00 PM)
Average72 °F75%30.13 "Hg
* Reported Jan 24 7:00 AM — Feb 8 7:30 AM, Gitega, Weather by CustomWeather, © 2016

Note: Actual official high and low records may vary slightly from our data, if they occured in-between our weather recording intervals... More about our weather records

Advertising

Gitega Weather History for the Previous 24 Hours

 ConditionsComfort  
Time TempWeatherWind HumidityBarometerVisibility
7:30 AM
Mon, Feb 8
64 °FFog.No wind94%30.15 "Hg0 mi
7:00 AM64 °FFog.No wind94%30.15 "Hg2 mi
5:30 AM64 °FFog.No wind100%30.12 "Hg3 mi
5:00 AM64 °FPassing clouds.No wind100%30.12 "Hg4 mi
4:00 AM64 °FPassing clouds.2 mph94%30.12 "HgN/A
3:30 AM66 °FPassing clouds.No wind88%30.12 "HgN/A
3:00 AM64 °FPassing clouds.No wind94%30.12 "Hg6 mi
2:30 AM64 °FPassing clouds.3 mph94%30.12 "HgN/A
2:00 AM64 °FPassing clouds.5 mph94%30.12 "HgN/A
1:00 AM66 °FPassing clouds.5 mph94%30.15 "HgN/A
12:30 AM64 °FPassing clouds.3 mph94%30.18 "HgN/A
12:00 AM64 °FPassing clouds.3 mph94%30.18 "Hg5 mi
11:30 PM
Sun, Feb 7
66 °FPassing clouds.3 mph88%30.18 "HgN/A
11:00 PM66 °FPassing clouds.2 mph88%30.18 "HgN/A
10:30 PM66 °FPassing clouds.3 mph88%30.18 "HgN/A
10:00 PM66 °FPassing clouds.5 mph88%30.18 "HgN/A
9:30 PM66 °FPartly cloudy.8 mph88%30.15 "HgN/A
9:00 PM66 °FPassing clouds.9 mph94%30.15 "HgN/A
8:30 PM64 °FPassing clouds.9 mph100%30.12 "HgN/A
8:00 PM66 °FThunderstorms. Passing clouds.9 mph88%30.15 "HgN/A
7:30 PM66 °FThunderstorms. Passing clouds.7 mph88%30.15 "HgN/A
7:00 PM64 °FThunderstorms. Passing clouds.7 mph94%30.15 "HgN/A
6:00 PM70 °FThunderstorms. Partly sunny.12 mph73%30.09 "HgN/A
5:30 PM77 °FPartly sunny.7 mph51%30.07 "HgN/A
5:00 PM79 °FBroken clouds.9 mph45%30.07 "HgN/A
4:30 PM79 °FPartly sunny.8 mph48%30.07 "HgN/A
4:00 PM79 °FPartly sunny.6 mph54%30.07 "HgN/A
3:30 PM77 °FPartly sunny.12 mph54%30.07 "HgN/A
3:00 PM77 °FPartly sunny.12 mph51%30.07 "HgN/A
2:30 PM79 °FPartly sunny.20 mph48%30.07 "HgN/A
2:00 PM82 °FScattered clouds.7 mph45%30.07 "HgN/A
1:30 PM82 °FScattered clouds.5 mph45%30.07 "HgN/A
1:00 PM81 °FScattered clouds.6 mph51%30.09 "HgN/A
12:30 PM81 °FScattered clouds.6 mph54%30.15 "HgN/A
12:00 PM81 °FScattered clouds.6 mph51%30.18 "HgN/A
11:30 AM81 °FScattered clouds.9 mph51%30.18 "HgN/A
11:00 AM79 °FScattered clouds.9 mph54%30.18 "HgN/A
10:30 AM79 °FPassing clouds.7 mph58%30.21 "HgN/A
10:00 AM75 °FPassing clouds.3 mph69%30.21 "HgN/A
9:30 AM75 °FPassing clouds.3 mph69%30.21 "HgN/A
9:00 AM73 °FScattered clouds.3 mph69%30.21 "HgN/A
8:30 AM72 °FSunny.3 mph73%30.21 "Hg10 mi
8:00 AM70 °FClear.2 mph78%30.21 "Hg5 mi
Weather by CustomWeather, © 2016

See weather overviewHow to use our weather pages